sat.trackr.live / text

‹ back to catalog

STARLINK-5443

NORAD 54781 · 2022-175Z

PAYLOAD ACTIVE UNKNOWN

§ Identity

Operator
Country
US
Launch date
2022-12-17
Launch site
AFETR
Launch vehicle
Mass (kg)
RCS (m²)

Purposes: comms

External: N2YO · Heavens-Above · Gunter

§ Orbital elements

Epoch: 2026-09-20T21:32:25.639872Z

Period
93.85 min
Inclination
53.1585°
Eccentricity
0.0001312
Mean motion
15.34380632 rev/d
Perigee alt
461.9 km
Apogee alt
463.7 km
Semi-major
6,840.9 km
B*
4.9155e-5
RAAN
217.7925°
Arg perigee
89.5832°
Mean anomaly
270.5321°
Rev number
20,980

§ Raw data

STARLINK-54431 54781U 22175Z   26263.89751898  .00001284  00000+0  49155-4 0  99982 54781  53.1585 217.7925 0001312  89.5832 270.5321 15.34380632209803

JSON: /api/v1/satellites/54781 · /tle

For live sub-satellite position, see the globe view (requires WebGL).

§ Visibility from observer

Set your observer location to see the next 7 days of passes ≥ 10°. The values pass through the URL so the page stays shareable.

No JS? Fill the form by hand. The geolocation button needs JavaScript.